Weather in Kish Island

Iran     26°32′31″N   53°59′33″E
temp.,
°C
wind,
m/s
gust,
m/s
humid.,
%
clouds,
%
prec.,
mm/h
press.,
hPa
HPBL,
m
14 april, wed
wed1401:30+27nne3361100 0.0 100921
04:30+27e4463100 0.0 100831
07:30+27ene2266100 0.0 101021
10:30+27ese3366100 0.0 101122
13:30+28s4463100 0.0 101036
16:30+28sw3369100 0.0 100841
19:30+27w4464100 0.0 100927
22:30+27nw5667100 0.0 100960
15 april, thu
thu1501:30+26wnw71269100 0.0 1010171
04:30+27n566399 0.0 100880
07:30+27nw336892 0.0 100923
10:30+26wsw6776100 0.0 1010110
13:30+25w912795 0.0 1009224
16:30+25w91378100 0.0 1008280
19:30+25w91577100 0.0 1008329
22:30+25wnw101572100 0.0 1009265
16 april, fri
fri1601:30+25wnw101372100 0.0 1007266
04:30+25wnw10127197 0.0 1007245
07:30+25wnw81069100 0.0 1008224
10:30+26wnw8963100 0.0 1010166
13:30+26w81164100 0.0 1008158
16:30+26w1115650 0.0 1007352
19:30+25wnw1216670 0.0 1008463
22:30+25w1013700 0.0 1008352
17 april, sat
sat1701:30+25w89650 0.0 1007352
04:30+25wnw66660 0.0 1007264
07:30+25w55685 0.0 1010228
10:30+25nw1264100 0.0 1011231
13:30+26w556270 0.0 1010370
16:30+25w787099 0.0 1009329
19:30+25w91074100 0.0 1010365
22:30+25w7768100 0.0 1011341
18 april, sun
sun1801:30+25wnw346898 0.0 1010309
04:30+25ne2366100 0.0 1010205
07:30+25e44698 0.0 1012366
10:30+25e446851 0.0 1013352
13:30+26sse2265100 0.0 1012181
16:30+26w556598 0.0 1010324
19:30+25w71074100 0.0 1011275
22:30+25w6875100 0.0 1011269